Hourly Weather Ghanzi

Today, 13 July, Monday

Time Temperature Precipitation Wind Pressure Humidity
00:00 +33°C° 0 mm 5 mps 712 mmHg 20%
01:00 +32°C° 0 mm 4 mps 712 mmHg 21%
02:00 +32°C° 0 mm 4 mps 712 mmHg 22%
03:00 +30°C° 0 mm 4 mps 712 mmHg 22%
04:00 +29°C° 0 mm 4 mps 712 mmHg 23%
05:00 +30°C° 0 mm 4 mps 712 mmHg 21%
06:00 +32°C° 0 mm 5 mps 712 mmHg 19%
07:00 +33°C° 0 mm 5 mps 713 mmHg 17%
08:00 +35°C° 0 mm 5 mps 713 mmHg 15%
09:00 +37°C° 0 mm 5 mps 713 mmHg 13%
10:00 +40°C° 0 mm 5 mps 713 mmHg 11%
11:00 +41°C° 0 mm 5 mps 713 mmHg 11%
12:00 +42°C° 0 mm 5 mps 712 mmHg 10%
13:00 +42°C° 0 mm 4 mps 712 mmHg 10%
14:00 +42°C° 0 mm 4 mps 711 mmHg 10%
15:00 +42°C° 0 mm 4 mps 711 mmHg 10%
16:00 +42°C° 0 mm 4 mps 710 mmHg 10%
17:00 +40°C° 0 mm 4 mps 710 mmHg 11%
18:00 +37°C° 0 mm 4 mps 710 mmHg 13%
19:00 +35°C° 0 mm 4 mps 710 mmHg 14%
20:00 +35°C° 0 mm 4 mps 710 mmHg 14%
21:00 +34°C° 0 mm 5 mps 711 mmHg 15%
22:00 +33°C° 0 mm 5 mps 711 mmHg 15%
23:00 +32°C° 0 mm 5 mps 711 mmHg 17%

Tomorrow, 14 July, Tuesday

Time Temperature Precipitation Wind Pressure Humidity
00:00 +30°C° 0 mm 5 mps 711 mmHg 19%
01:00 +29°C° 0 mm 5 mps 711 mmHg 21%
02:00 +28°C° 0 mm 4 mps 711 mmHg 23%
03:00 +28°C° 0 mm 4 mps 711 mmHg 26%
04:00 +27°C° 0 mm 4 mps 710 mmHg 29%
05:00 +28°C° 0 mm 4 mps 711 mmHg 27%
06:00 +29°C° 0 mm 4 mps 711 mmHg 25%
07:00 +30°C° 0 mm 5 mps 712 mmHg 23%
08:00 +33°C° 0 mm 4 mps 712 mmHg 21%
09:00 +35°C° 0 mm 3 mps 712 mmHg 18%
10:00 +37°C° 0 mm 3 mps 713 mmHg 15%
11:00 +38°C° 0 mm 2 mps 712 mmHg 14%
12:00 +39°C° 0 mm 2 mps 712 mmHg 12%
13:00 +40°C° 0 mm 1 mps 711 mmHg 11%
14:00 +40°C° 0 mm 1 mps 711 mmHg 11%
15:00 +41°C° 0 mm 1 mps 710 mmHg 11%
16:00 +41°C° 0 mm 1 mps 710 mmHg 11%
17:00 +39°C° 0 mm 1 mps 710 mmHg 12%
18:00 +37°C° 0 mm 2 mps 710 mmHg 13%
19:00 +35°C° 0 mm 2 mps 710 mmHg 15%
20:00 +35°C° 0 mm 2 mps 710 mmHg 15%
21:00 +35°C° 0 mm 3 mps 711 mmHg 15%
22:00 +35°C° 0 mm 3 mps 711 mmHg 16%
23:00 +34°C° 0 mm 4 mps 711 mmHg 16%

Day after tomorrow, 15 July, Wednesday

Time Temperature Precipitation Wind Pressure Humidity
00:00 +33°C° 0 mm 5 mps 711 mmHg 16%
01:00 +32°C° 0 mm 5 mps 711 mmHg 17%
02:00 +30°C° 0 mm 5 mps 711 mmHg 18%
03:00 +29°C° 0 mm 4 mps 711 mmHg 19%
04:00 +28°C° 0 mm 4 mps 711 mmHg 20%
05:00 +29°C° 0 mm 4 mps 712 mmHg 19%
06:00 +30°C° 0 mm 4 mps 713 mmHg 18%
07:00 +32°C° 0 mm 4 mps 713 mmHg 16%
08:00 +34°C° 0 mm 3 mps 714 mmHg 15%
09:00 +36°C° 0 mm 3 mps 714 mmHg 13%
10:00 +38°C° 0 mm 2 mps 714 mmHg 11%
11:00 +39°C° 0 mm 1 mps 714 mmHg 11%
12:00 +40°C° 0 mm 1 mps 713 mmHg 10%
13:00 +39°C° 0 mm 0 mps 713 mmHg 9%
14:00 +42°C° 0 mm 1 mps 713 mmHg 9%
15:00 +42°C° 0 mm 1 mps 712 mmHg 9%
16:00 +42°C° 0 mm 2 mps 712 mmHg 9%
17:00 +41°C° 0 mm 2 mps 712 mmHg 11%
18:00 +39°C° 0 mm 3 mps 712 mmHg 12%
19:00 +38°C° 0 mm 4 mps 712 mmHg 13%
20:00 +37°C° 0 mm 5 mps 712 mmHg 13%
21:00 +36°C° 0 mm 6 mps 713 mmHg 14%
22:00 +36°C° 0 mm 7 mps 713 mmHg 14%
23:00 +35°C° 0 mm 7 mps 713 mmHg 15%

16 July, Thursday

Time Temperature Precipitation Wind Pressure Humidity
00:00 +34°C° 0 mm 6 mps 713 mmHg 16%
01:00 +33°C° 0 mm 6 mps 712 mmHg 17%
02:00 +32°C° 0 mm 5 mps 712 mmHg 17%
03:00 +30°C° 0 mm 5 mps 712 mmHg 18%
04:00 +29°C° 0 mm 4 mps 712 mmHg 19%
05:00 +30°C° 0 mm 5 mps 713 mmHg 18%
06:00 +32°C° 0 mm 5 mps 713 mmHg 17%
07:00 +33°C° 0 mm 6 mps 714 mmHg 16%
08:00 +36°C° 0 mm 5 mps 714 mmHg 14%
09:00 +39°C° 0 mm 5 mps 714 mmHg 12%
10:00 +41°C° 0 mm 4 mps 714 mmHg 9%
11:00 +42°C° 0 mm 4 mps 714 mmHg 9%
12:00 +43°C° 0 mm 4 mps 713 mmHg 9%
13:00 +44°C° 0 mm 4 mps 713 mmHg 9%
14:00 +44°C° 0 mm 4 mps 713 mmHg 9%
15:00 +44°C° 0 mm 4 mps 712 mmHg 9%
16:00 +45°C° 0 mm 5 mps 712 mmHg 9%
17:00 +42°C° 0 mm 4 mps 712 mmHg 11%
18:00 +40°C° 0 mm 4 mps 712 mmHg 12%
19:00 +37°C° 0 mm 4 mps 712 mmHg 13%
20:00 +37°C° 0 mm 5 mps 712 mmHg 14%
21:00 +36°C° 0 mm 6 mps 712 mmHg 14%
22:00 +35°C° 0 mm 8 mps 713 mmHg 14%
23:00 +34°C° 0 mm 7 mps 712 mmHg 16%

17 July, Friday

Time Temperature Precipitation Wind Pressure Humidity
00:00 +33°C° 0 mm 7 mps 712 mmHg 17%
01:00 +32°C° 0 mm 7 mps 712 mmHg 18%
02:00 +30°C° 0 mm 6 mps 712 mmHg 20%
03:00 +30°C° 0 mm 6 mps 712 mmHg 22%
04:00 +29°C° 0 mm 5 mps 712 mmHg 24%
05:00 +30°C° 0 mm 6 mps 713 mmHg 23%
06:00 +32°C° 0 mm 7 mps 713 mmHg 22%
07:00 +33°C° 0 mm 8 mps 714 mmHg 22%
08:00 +35°C° 0 mm 7 mps 714 mmHg 19%
09:00 +38°C° 0 mm 6 mps 714 mmHg 17%
10:00 +39°C° 0 mm 6 mps 714 mmHg 14%
11:00 +40°C° 0 mm 5 mps 714 mmHg 13%
12:00 +41°C° 0 mm 5 mps 713 mmHg 12%
13:00 +42°C° 0 mm 4 mps 713 mmHg 11%
14:00 +42°C° 0 mm 5 mps 712 mmHg 11%
15:00 +42°C° 0 mm 5 mps 712 mmHg 10%
16:00 +43°C° 0 mm 5 mps 711 mmHg 10%
17:00 +41°C° 0 mm 5 mps 711 mmHg 11%
18:00 +39°C° 0 mm 5 mps 711 mmHg 12%
19:00 +36°C° 0 mm 5 mps 712 mmHg 13%
20:00 +35°C° 0 mm 5 mps 712 mmHg 14%
21:00 +34°C° 0 mm 5 mps 712 mmHg 15%
22:00 +33°C° 0 mm 5 mps 712 mmHg 16%
23:00 +32°C° 0 mm 4 mps 712 mmHg 18%

18 July, Saturday

Time Temperature Precipitation Wind Pressure Humidity
00:00 +30°C° 0 mm 4 mps 712 mmHg 20%
01:00 +30°C° 0 mm 4 mps 712 mmHg 21%
02:00 +29°C° 0 mm 4 mps 712 mmHg 23%
03:00 +29°C° 0 mm 4 mps 712 mmHg 25%
04:00 +28°C° 0 mm 4 mps 712 mmHg 26%
05:00 +29°C° 0 mm 4 mps 712 mmHg 25%
06:00 +30°C° 0 mm 4 mps 713 mmHg 23%
07:00 +33°C° 0 mm 4 mps 713 mmHg 22%
08:00 +35°C° 0 mm 4 mps 713 mmHg 20%
09:00 +37°C° 0 mm 3 mps 713 mmHg 18%
10:00 +39°C° 0 mm 3 mps 713 mmHg 15%
11:00 +41°C° 0 mm 4 mps 713 mmHg 14%
12:00 +42°C° 0 mm 5 mps 712 mmHg 13%
13:00 +44°C° 0 mm 6 mps 712 mmHg 12%
14:00 +44°C° 0 mm 6 mps 712 mmHg 12%
15:00 +44°C° 0 mm 6 mps 711 mmHg 12%
16:00 +44°C° 0 mm 7 mps 711 mmHg 11%
17:00 +41°C° 0 mm 6 mps 711 mmHg 13%
18:00 +40°C° 0 mm 5 mps 711 mmHg 15%
19:00 +37°C° 0 mm 4 mps 711 mmHg 17%
20:00 +36°C° 0 mm 4 mps 711 mmHg 18%
21:00 +35°C° 0 mm 4 mps 711 mmHg 19%
22:00 +34°C° 0 mm 4 mps 711 mmHg 20%
23:00 +33°C° 0 mm 3 mps 711 mmHg 21%
Show more